Showing default

LEMUR 2 ALISIA, 62706

Orbit data source: Space-Track

LEMUR 2 ALISIA, 62706 is a payload satellite owned by Spire (US) in SSO that was launched on Tue, 14 Jan 2025 UTC via an FALCON 9 launch vehicle from the Air Force Western Test Range (AFWTR). Payload-class satellites include a variety of spacecraft equipped with specific instruments for various scientific and technological missions. These include communications satellites like Starlink; space stations such as the ISS; scientific satellites like the Hubble; Earth observation satellites from companies like Planet Labs, Umbra, and HawkEye 360; GPS; miniature CubeSats for education and research; and military/defense satellites.

Loading next visibility...
Identifier
62706, 2025-009DB
Orbit
SSO
Country
Flag of USUS
Related business
Manufacturer
Spire/Glasgow
Mission
Operational Commercial Com/MetRO
Bus & Motor
CUBESAT 3U, Unknown motor
Mass
7.6 kg wet, 7.6 kg dry
Launch date (UTC)
2025-01-14 (1 year ago)
Launch vehicle
FALCON 9
Launch site
Air Force Western Test Range (AFWTR)
Object type
Payload
Rocket body
Debris
Shape & HBR
Box + 2 Pan, 0.2 m
Radar Cross Section
0.063 m², Small (<0.1 m²)

Expand to show TLE details & history
Last TLE update: 8 hours ago

TLE from 8 hours ago
0 LEMUR 2 ALISIA
1 62706U 25009DB  26034.20172770  .00009127  00000-0  72830-3 0  9990
2 62706  97.7196 117.4292 0002908 252.1858 107.9049 15.00513526 80059
Epoch: 2026-02-03T04:50Z
TLE epoch observation values (Epoch: 2026-02-03T04:50:29.273Z)
Latitude
0.00004°
Longitude
-88.57883°
Altitude
568.988 km
Speed
7.576 km/s
True Right ascension
07h 49m 43s
True Declination
0° 00' 00"
Sunlit
Object was in full shadow at epoch
Visualization orbit readout
Latitude
Unknown
Longitude
Unknown
Altitude
Unknown
Speed
Unknown
Apparent Right ascension
Unknown
Apparent Declination
Unknown
Sunlit
N/A
Visualization observer readout
Local Sidereal Time
14:57:17
Azimuth
Unknown
Elevation
Unknown
Doppler factor
Unknown
Orbital elements
Apogee altitude
564.335 km
Perigee altitude
560.299 km
Semi-major axis
6,940.454 km
Eccentricity
0.00029
Inclination
97.7196°
RAAN
117.4292°
Arg. of periapsis
252.1858°
True anomaly
107.93661°
Mean anomaly
107.9049°
Eccentric anomaly
107.92075°
Mean motion
3.75372 °/min
Orbital period
95.9 mins
BSTAR
0.0007283
Loading maneuver chart data...
Computing Atmospheric mass density...
Loading historical data...
Loading historical data...
Loading historical data...
Loading historical data...
Loading historical data...
Loading historical data...
Loading historical data...

Documentation

Showing up to 5 results
|